Location: ?????????
(55.6553°N, 38.9075°E)
Time: 09:05:53
(UTC+00:00)

Cosmos 2369 Rocket - Pass Details

Date: 18 October 2019
Orbit: 830 x 851 km, 71.0° (Epoch: 12 November)

Event Time Altitude Azimuth Distance (km) Brightness Sun altitude
Exits shadow 00:14:49 11° 332° (NNW) 2,398 4.6 -31.3°
Maximum altitude 00:18:31 19° 15° (NNE) 1,898 4.5 -30.9°
Drops below altitude 10° 00:22:26 10° 60° (ENE) 2,449 5.5 -30.4°
Sets 00:25:38 0° 78° (ENE) 3,380 6.4 -30.0°
